SCP
0 0 0 0 0 0 0 0 0 0 0 0 0 0 0 0 0 0 0 0 0 0 0 0 0 0 0 0 0 0 0 -0 -0 0 0 0 -0 -0 -0 -0 0 0 0
0 0 0 0 0 0 0 0 0 0 0 0 0 0 0 0 0 0 0 0 0 0 0 0 0 0 0 0 0 0 0 -0 -0 -0 0 -0 0 0 -0 -0 -0 0 0
0 0 0 0 0 0 0 0 0 0 0 0 0 0 0 0 0 0 0 0 0 0 0 0 0 0 0 0 0 0 0 -0 -0 -0 -0 -0 0 0 -0 0 -0 0 0
0 0 0 0 0 0 0 0 0 0 0 0 0 0 0 0 0 0 0 0 0 0 0 0 0 0 0 0 0 0 0 -0 -0 -0 0 0 0 -0 0 0 0 0 0
0 0 0 0 0 0 0 0 0 0 0 0 0 0 0 0 0 0 0 0 0 0 0 0 0 0 0 0 0 0 0 0 -0 -0 0 0 0 -0 -0 0 0 0 0
0 0 0 0 0 0 0 0 0 0 0 0 0 0 0 0 0 0 0 0 0 0 0 0 0 0 0 0 0 0 0 0 -0 -0 -0 -0 0 0 -0 0 0 0 0
0 0 0 0 0 0 0 0 0 0 0 0 0 0 0 0 0 0 0 0 0 0 0 0 0 0 0 0 0 0 0 0 0 -0 -0 0 0 0 0 0 0 0 0
0 0 0 0 0 0 0 0 0 0 0 0 0 0 0 0 0 0 0 0 0 0 0 0 0 0 0 0 0 0 0 0 0 0 0 0 0 0 0 0 0 -0 0
0 0 0 0 0 0 0 0 0 0 0 0 0 0 0 0 0 0 0 0 0 0 0 0 0 0 0 0 0 0 0 0 0 0 0 0 0 0 0 0 0 -0 0
0 0 0 0 0 0 0 0 0 0 0 0 0 0 0 0 0 0 0 0 0 0 0 0 0 0 0 0 0 0 0 0 0 0 0 0 0 0 0 0 0 0 0
0 0 0 0 0 0 0 0 0 0 0 0 0 0 0 0 0 0 0 0 0 0 0 0 0 0 0 0 0 0 0 0 -0 -0 0 0 0 0 0 0 0 0 0
0 0 0 0 0 0 0 0 0 0 0 0 0 0 0 0 0 0 0 0 0 0 0 0 0 0 0 0 0 0 0 0 0 -0 0 0 0 0 0 0 0 0 0
0 0 0 0 0 0 0 0 0 0 0 0 0 0 0 0 0 0 0 0 0 0 0 0 0 0 0 0 0 0 0 0 0 -0 -0 0 -0 0 0 0 0 0 0
0 0 0 0 0 0 0 0 0 0 0 0 0 0 0 0 0 0 0 0 0 0 0 0 0 0 0 0 0 0 0 0 0 0 -0 0 -0 -0 0 0 0 0 0
0 0 0 0 0 0 0 0 0 0 0 0 0 0 0 0 0 0 0 0 0 0 0 0 0 0 0 0 0 0 0 0 0 0 -0 0 -0 -0 -0 0 0 0 0
0 0 0 0 0 0 0 0 0 0 0 0 0 0 0 0 0 0 0 0 0 0 0 0 0 0 0 0 0 0 0 0 0 0 -0 0 -0 -0 -0 -0 0 0 0
0 0 0 0 0 0 0 0 0 0 0 0 0 0 0 0 0 0 0 0 0 0 0 0 0 0 0 0 0 0 0 0 0 0 0 0 0 -0 -0 -0 0 0 0
0 0 0 0 0 0 0 0 0 0 0 0 0 0 0 0 0 0 0 0 0 0 0 0 0 0 0 0 0 0 0 0 0 0 0 0 0 -0 -0 -0 0 0 0
0 0 0 0 0 0 0 0 0 0 0 0 0 0 0 0 0 0 0 0 0 0 0 0 0 0 0 0 0 0 0 0 0 0 0 -0 0 -0 -0 -0 -0 0 0
0 0 0 0 0 0 0 0 0 0 0 0 0 0 0 0 0 0 0 0 0 0 0 0 0 0 0 0 0 0 0 0 0 0 0 -0 0 -0 -0 -0 -0 0 0
0 0 0 0 0 0 0 0 0 0 0 0 0 0 0 0 0 0 0 0 0 0 0 0 0 0 0 0 0 0 0 0 0 0 0 0 -0 0 -0 -0 -0 0 0
0 0 0 0 0 0 0 0 0 0 0 0 0 0 0 0 0 0 0 0 0 0 0 0 0 0 0 0 0 0 0 0 0 0 0 0 -0 0 0 0 -0 -0 0
0 0 0 0 0 0 0 0 0 0 0 0 0 0 0 0 0 0 0 0 0 0 0 0 0 0 0 0 0 0 0 0 0 0 0 0 -0 -0 0 0 -0 0 0
0 0 0 0 0 0 0 0 0 0 0 0 0 0 0 0 0 0 0 0 0 0 0 0 0 0 0 0 0 0 0 0 0 0 0 0 0 0 0 0 0 0 0
0 0 0 0 0 0 0 0 0 0 0 0 0 0 0 0 0 0 0 0 0 0 0 0 0 0 0 0 0 0 0 0 0 0 0 0 0 0 0 0 0 0 0
0 0 0 0 0 0 0 0 0 0 0 0 0 0 0 0 0 0 0 0 0 0 0 0 0 0 0 0 0 0 0 0 0 0 0 0 0 0 0 0 0 0 0
Wind_Speed_500mb
47 41 34 29 25 19 15 17 19 21 21 22 27 31 37 39 39 41 45 49 53 51 53 55 57 59 62 65 67 68 73 77 80 80 46 23 20 38 38 26 18 14 23
57 51 46 37 30 24 18 18 20 20 21 24 29 34 35 36 38 41 44 50 52 53 55 56 56 58 59 59 64 67 70 70 67 72 48 31 23 47 31 36 26 12 7
70 63 56 46 37 29 21 19 19 18 19 22 26 27 28 33 36 45 49 51 48 49 49 51 53 54 54 58 60 63 61 67 63 62 52 23 23 59 30 39 43 32 14
76 70 63 54 45 33 24 20 18 17 18 21 27 30 34 39 44 48 51 51 47 44 45 46 48 51 52 52 56 57 57 55 61 61 63 52 40 28 21 38 37 37 30
82 80 70 56 46 35 27 21 17 17 17 20 26 28 32 36 41 44 48 48 45 44 42 42 43 46 49 49 50 53 55 50 52 53 63 70 57 50 26 24 42 41 36
83 80 69 60 51 41 33 24 18 17 16 19 24 27 32 37 42 48 52 50 50 48 42 37 37 40 44 47 47 47 50 51 44 49 52 62 61 52 38 36 41 39 27
83 85 80 72 59 48 38 28 19 16 14 18 22 27 33 37 43 51 57 57 55 50 45 39 32 34 38 42 44 44 47 51 44 47 52 56 61 52 43 33 33 36 33
81 87 87 75 61 50 41 30 22 18 14 15 20 26 30 34 40 48 53 52 53 52 47 40 31 30 33 37 41 41 42 46 46 40 48 54 60 65 44 38 32 33 33
79 89 87 75 62 52 43 32 25 19 14 13 17 23 26 30 38 47 49 48 48 46 42 40 32 26 28 31 36 38 39 42 46 44 45 50 58 64 50 33 25 22 15
73 88 88 76 64 53 45 38 29 21 15 12 15 19 22 29 38 44 44 44 43 42 39 35 31 25 24 28 30 34 34 37 42 46 47 50 55 63 57 42 25 17 13
70 86 87 76 66 59 50 41 31 24 15 13 13 13 18 27 37 41 40 42 43 41 39 36 31 26 24 26 28 30 31 33 38 43 48 51 53 62 62 52 38 19 13
63 79 87 80 73 65 56 46 36 26 18 12 11 9 15 24 33 36 38 41 41 41 38 35 31 26 24 27 28 29 28 33 36 41 45 47 50 57 63 58 48 29 14
61 73 85 87 81 71 61 51 40 30 20 13 9 6 12 21 30 33 36 40 41 40 39 35 31 26 27 29 32 31 26 28 32 36 42 45 48 52 64 61 53 41 19
63 72 84 90 85 74 64 54 44 34 24 14 9 3 9 19 26 30 35 39 40 40 39 35 30 25 25 33 37 32 26 26 27 31 34 40 44 48 61 64 57 48 31
66 75 87 95 89 80 70 59 49 37 26 16 12 5 5 16 23 27 33 38 40 41 40 36 29 22 24 37 40 34 25 26 27 29 30 37 34 37 43 52 53 47 38
71 76 86 96 95 87 76 66 55 42 30 21 16 9 2 13 19 24 32 35 35 36 36 34 29 22 25 33 39 33 26 23 26 26 28 31 34 29 40 46 45 41 39
73 79 89 99 101 94 81 72 59 46 34 26 22 13 3 9 13 19 27 28 31 34 36 36 33 26 24 36 37 33 27 24 24 25 27 28 31 30 38 40 41 40 35
76 80 85 93 99 93 81 71 62 49 38 32 27 18 9 7 8 16 20 24 28 31 35 37 37 33 30 37 40 40 29 22 20 22 23 29 30 27 35 37 39 40 39
67 72 79 86 95 95 85 78 66 54 44 37 31 23 14 8 5 11 16 20 25 29 32 34 35 36 34 36 43 45 34 21 18 17 18 22 25 27 34 33 35 37 37
47 63 70 79 86 91 90 82 71 60 49 42 35 28 19 12 6 8 12 16 21 26 30 33 35 36 36 36 45 46 37 26 19 10 11 16 18 23 28 30 30 33 34
37 52 61 68 77 88 94 85 72 60 48 46 41 33 25 18 11 7 9 14 19 23 24 29 33 36 39 38 47 49 41 36 27 12 8 11 14 21 24 25 26 27 29
34 50 59 66 73 91 95 86 73 60 55 51 46 38 30 23 16 10 8 11 15 18 22 26 30 36 40 44 50 51 41 36 27 12 11 13 17 19 19 23 24 21 23
34 49 57 63 77 93 94 86 75 67 61 57 51 45 37 29 22 15 9 7 9 13 18 25 30 36 41 48 52 52 42 37 27 16 14 16 19 18 17 21 22 20 21
42 54 62 72 85 97 92 81 76 68 63 61 56 50 41 34 26 19 12 7 5 8 14 22 29 35 40 50 53 54 46 33 22 18 14 13 16 18 18 15 20 27 27
47 57 67 75 86 97 95 86 76 69 68 64 58 53 46 37 30 23 15 8 3 5 13 21 27 31 38 40 43 54 52 36 25 21 14 10 11 13 17 22 24 23 24
52 63 73 79 89 98 96 90 78 71 70 69 63 57 49 42 34 25 17 10 4 6 11 17 22 25 26 29 40 47 51 39 25 15 13 15 17 19 22 24 28 29 30
Wind_Direction_500mb
216 216 217 224 238 253 284 308 318 328 343 344 348 356 358 359 355 355 357 354 350 352 353 354 353 355 357 359 359 357 360 9 6 4 5 16 356 8 356 348 355 314 13
214 213 214 222 232 245 270 292 311 329 339 344 351 355 354 354 356 359 355 347 347 353 355 355 355 355 355 359 1 2 359 8 11 6 8 349 345 349 2 0 1 20 337
213 211 212 219 227 238 258 278 303 321 331 340 348 346 346 350 350 356 356 349 345 346 350 350 352 354 355 359 2 2 4 0 12 14 15 347 330 337 346 354 358 8 315
218 216 213 215 223 231 247 266 293 311 322 333 342 346 351 353 355 355 351 343 340 342 343 346 350 354 355 359 2 2 3 4 7 10 15 11 352 359 323 343 357 1 23
218 213 213 219 220 228 241 256 281 297 313 333 339 346 348 349 351 350 347 341 342 340 338 339 344 351 355 357 360 0 4 4 4 9 11 10 6 3 348 339 342 343 357
217 214 212 212 215 221 231 242 264 285 304 327 336 341 344 348 350 351 346 348 350 349 340 333 337 345 353 357 359 359 2 4 4 11 14 13 8 356 351 332 348 345 342
213 208 206 206 211 218 223 232 250 269 292 315 335 338 343 351 351 351 346 349 354 353 349 340 334 337 347 356 357 357 1 4 4 8 16 14 12 6 359 347 347 341 342
213 209 208 209 212 216 218 225 238 253 277 311 329 336 345 350 352 351 345 352 354 354 350 347 335 330 340 351 356 356 3 3 6 6 11 13 9 9 6 354 348 347 342
210 209 208 210 211 215 219 223 233 243 262 302 325 336 345 349 354 351 347 355 357 357 354 348 341 328 331 342 350 357 1 4 8 11 7 13 8 7 6 360 359 355 331
209 209 208 207 210 215 216 221 227 238 251 289 319 334 346 352 357 350 348 358 2 359 358 356 347 336 334 338 345 354 359 5 10 12 11 13 11 7 11 8 354 350 315
212 211 207 207 211 210 213 218 223 234 243 275 312 334 349 354 358 348 352 1 5 4 4 1 358 348 346 341 342 352 356 2 7 11 15 16 12 8 13 13 8 344 335
215 213 209 206 206 208 212 213 219 224 235 267 301 329 353 357 358 348 358 5 8 6 8 8 3 356 353 347 345 347 353 359 3 8 11 15 13 7 14 13 12 4 343
213 212 207 206 207 207 209 212 215 218 223 247 273 313 357 360 358 355 5 10 11 8 11 11 8 4 0 354 351 345 344 356 4 9 10 9 8 11 13 10 11 10 354
216 213 207 206 207 208 208 210 212 214 217 226 238 285 352 3 1 2 10 14 14 14 13 15 14 12 4 8 354 349 344 351 357 10 12 11 9 12 10 4 8 12 11
217 218 211 207 206 206 207 206 210 212 209 212 214 214 346 11 3 7 16 18 17 18 18 15 15 17 13 21 356 353 353 356 352 2 12 12 19 13 9 6 7 12 21
229 223 216 211 209 208 207 206 206 206 204 202 201 196 312 27 11 14 22 20 18 22 21 20 19 18 15 20 1 358 351 352 353 354 7 9 15 17 15 6 13 17 21
235 227 222 217 212 210 207 206 202 200 200 197 194 186 176 50 23 25 29 19 20 24 25 24 22 20 10 17 1 0 350 346 349 349 354 6 13 21 20 6 14 23 29
239 232 225 218 214 209 205 203 201 198 198 192 189 185 174 97 41 41 32 25 24 24 26 26 23 16 17 20 10 0 352 345 346 347 351 358 6 21 25 6 17 22 25
252 239 231 221 214 206 202 199 197 195 195 190 189 184 174 143 86 57 44 31 27 25 23 24 22 19 14 11 15 355 357 352 351 348 348 358 2 25 28 12 14 22 26
243 234 224 219 213 202 199 197 196 195 191 189 187 184 178 164 129 82 59 40 34 29 26 21 19 20 17 9 13 3 2 357 355 8 357 5 10 27 30 25 18 20 25
235 225 221 218 209 200 197 196 196 192 189 185 187 186 179 175 159 122 74 47 35 30 24 24 18 18 18 17 13 8 4 360 357 15 31 22 38 38 31 28 26 28 28
218 216 209 205 202 197 196 194 193 188 189 187 188 186 182 180 172 155 105 64 43 26 21 22 22 19 18 24 16 11 8 0 7 36 52 58 57 46 40 32 28 33 35
218 208 204 199 195 195 196 194 189 189 188 188 188 187 184 184 178 167 140 90 51 31 25 22 19 21 17 22 20 16 17 12 27 66 68 68 62 48 44 46 35 29 33
215 207 197 196 192 192 193 196 192 188 190 189 189 188 186 187 182 175 165 135 79 34 31 32 25 16 18 20 14 20 23 26 41 64 70 67 60 50 46 50 52 45 41
213 206 201 196 194 190 191 190 193 191 189 190 189 188 187 189 188 184 175 163 122 47 35 31 27 17 18 21 13 19 20 25 35 49 55 74 84 67 54 43 46 50 46
214 204 201 198 193 192 189 190 191 193 193 190 190 190 190 190 190 190 182 179 171 58 36 29 24 22 20 14 13 20 20 20 32 29 71 79 79 76 66 57 52 51 54
Wind_Speed_850mb
47 41 34 29 25 19 15 17 19 21 21 22 27 31 37 39 39 41 45 49 53 51 53 55 57 59 62 65 67 68 73 77 80 80 46 23 20 38 38 26 18 14 23
57 51 46 37 30 24 18 18 20 20 21 24 29 34 35 36 38 41 44 50 52 53 55 56 56 58 59 59 64 67 70 70 67 72 48 31 23 47 31 36 26 12 7
70 63 56 46 37 29 21 19 19 18 19 22 26 27 28 33 36 45 49 51 48 49 49 51 53 54 54 58 60 63 61 67 63 62 52 23 23 59 30 39 43 32 14
76 70 63 54 45 33 24 20 18 17 18 21 27 30 34 39 44 48 51 51 47 44 45 46 48 51 52 52 56 57 57 55 61 61 63 52 40 28 21 38 37 37 30
82 80 70 56 46 35 27 21 17 17 17 20 26 28 32 36 41 44 48 48 45 44 42 42 43 46 49 49 50 53 55 50 52 53 63 70 57 50 26 24 42 41 36
83 80 69 60 51 41 33 24 18 17 16 19 24 27 32 37 42 48 52 50 50 48 42 37 37 40 44 47 47 47 50 51 44 49 52 62 61 52 38 36 41 39 27
83 85 80 72 59 48 38 28 19 16 14 18 22 27 33 37 43 51 57 57 55 50 45 39 32 34 38 42 44 44 47 51 44 47 52 56 61 52 43 33 33 36 33
81 87 87 75 61 50 41 30 22 18 14 15 20 26 30 34 40 48 53 52 53 52 47 40 31 30 33 37 41 41 42 46 46 40 48 54 60 65 44 38 32 33 33
79 89 87 75 62 52 43 32 25 19 14 13 17 23 26 30 38 47 49 48 48 46 42 40 32 26 28 31 36 38 39 42 46 44 45 50 58 64 50 33 25 22 15
73 88 88 76 64 53 45 38 29 21 15 12 15 19 22 29 38 44 44 44 43 42 39 35 31 25 24 28 30 34 34 37 42 46 47 50 55 63 57 42 25 17 13
70 86 87 76 66 59 50 41 31 24 15 13 13 13 18 27 37 41 40 42 43 41 39 36 31 26 24 26 28 30 31 33 38 43 48 51 53 62 62 52 38 19 13
63 79 87 80 73 65 56 46 36 26 18 12 11 9 15 24 33 36 38 41 41 41 38 35 31 26 24 27 28 29 28 33 36 41 45 47 50 57 63 58 48 29 14
61 73 85 87 81 71 61 51 40 30 20 13 9 6 12 21 30 33 36 40 41 40 39 35 31 26 27 29 32 31 26 28 32 36 42 45 48 52 64 61 53 41 19
63 72 84 90 85 74 64 54 44 34 24 14 9 3 9 19 26 30 35 39 40 40 39 35 30 25 25 33 37 32 26 26 27 31 34 40 44 48 61 64 57 48 31
66 75 87 95 89 80 70 59 49 37 26 16 12 5 5 16 23 27 33 38 40 41 40 36 29 22 24 37 40 34 25 26 27 29 30 37 34 37 43 52 53 47 38
71 76 86 96 95 87 76 66 55 42 30 21 16 9 2 13 19 24 32 35 35 36 36 34 29 22 25 33 39 33 26 23 26 26 28 31 34 29 40 46 45 41 39
73 79 89 99 101 94 81 72 59 46 34 26 22 13 3 9 13 19 27 28 31 34 36 36 33 26 24 36 37 33 27 24 24 25 27 28 31 30 38 40 41 40 35
76 80 85 93 99 93 81 71 62 49 38 32 27 18 9 7 8 16 20 24 28 31 35 37 37 33 30 37 40 40 29 22 20 22 23 29 30 27 35 37 39 40 39
67 72 79 86 95 95 85 78 66 54 44 37 31 23 14 8 5 11 16 20 25 29 32 34 35 36 34 36 43 45 34 21 18 17 18 22 25 27 34 33 35 37 37
47 63 70 79 86 91 90 82 71 60 49 42 35 28 19 12 6 8 12 16 21 26 30 33 35 36 36 36 45 46 37 26 19 10 11 16 18 23 28 30 30 33 34
37 52 61 68 77 88 94 85 72 60 48 46 41 33 25 18 11 7 9 14 19 23 24 29 33 36 39 38 47 49 41 36 27 12 8 11 14 21 24 25 26 27 29
34 50 59 66 73 91 95 86 73 60 55 51 46 38 30 23 16 10 8 11 15 18 22 26 30 36 40 44 50 51 41 36 27 12 11 13 17 19 19 23 24 21 23
34 49 57 63 77 93 94 86 75 67 61 57 51 45 37 29 22 15 9 7 9 13 18 25 30 36 41 48 52 52 42 37 27 16 14 16 19 18 17 21 22 20 21
42 54 62 72 85 97 92 81 76 68 63 61 56 50 41 34 26 19 12 7 5 8 14 22 29 35 40 50 53 54 46 33 22 18 14 13 16 18 18 15 20 27 27
47 57 67 75 86 97 95 86 76 69 68 64 58 53 46 37 30 23 15 8 3 5 13 21 27 31 38 40 43 54 52 36 25 21 14 10 11 13 17 22 24 23 24
52 63 73 79 89 98 96 90 78 71 70 69 63 57 49 42 34 25 17 10 4 6 11 17 22 25 26 29 40 47 51 39 25 15 13 15 17 19 22 24 28 29 30
Wind_Direction_850mb
216 216 217 224 238 253 284 308 318 328 343 344 348 356 358 359 355 355 357 354 350 352 353 354 353 355 357 359 359 357 360 9 6 4 5 16 356 8 356 348 355 314 13
214 213 214 222 232 245 270 292 311 329 339 344 351 355 354 354 356 359 355 347 347 353 355 355 355 355 355 359 1 2 359 8 11 6 8 349 345 349 2 0 1 20 337
213 211 212 219 227 238 258 278 303 321 331 340 348 346 346 350 350 356 356 349 345 346 350 350 352 354 355 359 2 2 4 0 12 14 15 347 330 337 346 354 358 8 315
218 216 213 215 223 231 247 266 293 311 322 333 342 346 351 353 355 355 351 343 340 342 343 346 350 354 355 359 2 2 3 4 7 10 15 11 352 359 323 343 357 1 23
218 213 213 219 220 228 241 256 281 297 313 333 339 346 348 349 351 350 347 341 342 340 338 339 344 351 355 357 360 0 4 4 4 9 11 10 6 3 348 339 342 343 357
217 214 212 212 215 221 231 242 264 285 304 327 336 341 344 348 350 351 346 348 350 349 340 333 337 345 353 357 359 359 2 4 4 11 14 13 8 356 351 332 348 345 342
213 208 206 206 211 218 223 232 250 269 292 315 335 338 343 351 351 351 346 349 354 353 349 340 334 337 347 356 357 357 1 4 4 8 16 14 12 6 359 347 347 341 342
213 209 208 209 212 216 218 225 238 253 277 311 329 336 345 350 352 351 345 352 354 354 350 347 335 330 340 351 356 356 3 3 6 6 11 13 9 9 6 354 348 347 342
210 209 208 210 211 215 219 223 233 243 262 302 325 336 345 349 354 351 347 355 357 357 354 348 341 328 331 342 350 357 1 4 8 11 7 13 8 7 6 360 359 355 331
209 209 208 207 210 215 216 221 227 238 251 289 319 334 346 352 357 350 348 358 2 359 358 356 347 336 334 338 345 354 359 5 10 12 11 13 11 7 11 8 354 350 315
212 211 207 207 211 210 213 218 223 234 243 275 312 334 349 354 358 348 352 1 5 4 4 1 358 348 346 341 342 352 356 2 7 11 15 16 12 8 13 13 8 344 335
215 213 209 206 206 208 212 213 219 224 235 267 301 329 353 357 358 348 358 5 8 6 8 8 3 356 353 347 345 347 353 359 3 8 11 15 13 7 14 13 12 4 343
213 212 207 206 207 207 209 212 215 218 223 247 273 313 357 360 358 355 5 10 11 8 11 11 8 4 0 354 351 345 344 356 4 9 10 9 8 11 13 10 11 10 354
216 213 207 206 207 208 208 210 212 214 217 226 238 285 352 3 1 2 10 14 14 14 13 15 14 12 4 8 354 349 344 351 357 10 12 11 9 12 10 4 8 12 11
217 218 211 207 206 206 207 206 210 212 209 212 214 214 346 11 3 7 16 18 17 18 18 15 15 17 13 21 356 353 353 356 352 2 12 12 19 13 9 6 7 12 21
229 223 216 211 209 208 207 206 206 206 204 202 201 196 312 27 11 14 22 20 18 22 21 20 19 18 15 20 1 358 351 352 353 354 7 9 15 17 15 6 13 17 21
235 227 222 217 212 210 207 206 202 200 200 197 194 186 176 50 23 25 29 19 20 24 25 24 22 20 10 17 1 0 350 346 349 349 354 6 13 21 20 6 14 23 29
239 232 225 218 214 209 205 203 201 198 198 192 189 185 174 97 41 41 32 25 24 24 26 26 23 16 17 20 10 0 352 345 346 347 351 358 6 21 25 6 17 22 25
252 239 231 221 214 206 202 199 197 195 195 190 189 184 174 143 86 57 44 31 27 25 23 24 22 19 14 11 15 355 357 352 351 348 348 358 2 25 28 12 14 22 26
243 234 224 219 213 202 199 197 196 195 191 189 187 184 178 164 129 82 59 40 34 29 26 21 19 20 17 9 13 3 2 357 355 8 357 5 10 27 30 25 18 20 25
235 225 221 218 209 200 197 196 196 192 189 185 187 186 179 175 159 122 74 47 35 30 24 24 18 18 18 17 13 8 4 360 357 15 31 22 38 38 31 28 26 28 28
218 216 209 205 202 197 196 194 193 188 189 187 188 186 182 180 172 155 105 64 43 26 21 22 22 19 18 24 16 11 8 0 7 36 52 58 57 46 40 32 28 33 35
218 208 204 199 195 195 196 194 189 189 188 188 188 187 184 184 178 167 140 90 51 31 25 22 19 21 17 22 20 16 17 12 27 66 68 68 62 48 44 46 35 29 33
215 207 197 196 192 192 193 196 192 188 190 189 189 188 186 187 182 175 165 135 79 34 31 32 25 16 18 20 14 20 23 26 41 64 70 67 60 50 46 50 52 45 41
213 206 201 196 194 190 191 190 193 191 189 190 189 188 187 189 188 184 175 163 122 47 35 31 27 17 18 21 13 19 20 25 35 49 55 74 84 67 54 43 46 50 46
214 204 201 198 193 192 189 190 191 193 193 190 190 190 190 190 190 190 182 179 171 58 36 29 24 22 20 14 13 20 20 20 32 29 71 79 79 76 66 57 52 51 54